STARLINK-31432, 59932

Orbit data source: Space-Track

STARLINK-31432, 59932 is a payload satellite owned by SpaceX/Seattle (US) in LEO that was launched on Sat, 01 Jun 2024 UTC via an FALCON 9 launch vehicle from the Air Force Eastern Test Range (AFETR). Payload-class satellites include a variety of spacecraft equipped with specific instruments for various scientific and technological missions. These include communications satellites like Starlink; space stations such as the ISS; scientific satellites like the Hubble; Earth observation satellites from companies like Planet Labs, Umbra, and HawkEye 360; GPS; miniature CubeSats for education and research; and military/defense satellites.

Loading next visibility...
Identifier
59932, 2024-106L
Orbit
LEO
Last TLE update
20 hours ago
Origin
Manufacturer
SpaceX/Seattle
Mission
Operational spacecraft
Bus & Motor
STARLINK V2M, Unknown motor
Mass
730 kg wet, ~700 kg dry
Launch date (UTC)
2024-06-01 (1 year ago)
Launch vehicle
FALCON 9
Launch site
Air Force Eastern Test Range (AFETR)
Object type
Payload
Rocket body
Debris
Shape & HBR
Unknown
Radar Cross Section
Large (>1 m²)

Expand to show TLE details & history

TLE from 20 hours ago
0 STARLINK-31432
1 59932U 24106L   25189.49598462 -.00040701  00000-0 -14789-2 0  9998
2 59932  43.0005 271.8576 0000764 138.6230 221.4680 15.27552878 63178
Epoch: 2025-07-08T11:54Z
TLE epoch observation values (Epoch: 2025-07-08T11:54:13.071Z)
Latitude
0.00002°
Longitude
166.61302°
Altitude
483.299 km
Speed
7.625 km/s
True Right ascension
18h 07m 25s
True Declination
0° 00' 00"
Sunlit
Object was in full shadow at epoch
Visualization orbit readout
Latitude
-42.07844°
Longitude
87.55324°
Altitude
496.632 km
Speed
7.616 km/s
Apparent Right ascension
10h 32m 42s
Apparent Declination
-46° 43' 13"
Sunlit
Object is in daylight
Visualization observer readout
Local Sidereal Time
20:07:21
Azimuth
243.333° WSW
Elevation
-62.96°
Doppler factor
1
Orbital elements
Apogee altitude
485.6 km
Perigee altitude
484.551 km
Semi-major axis
6,863.212 km
Eccentricity
0.00008
Inclination
43.0005°
RAAN
271.8576°
Arg. of periapsis
138.623°
True anomaly
Unknown
Mean anomaly
221.468°
Eccentric anomaly
Unknown
Mean motion
3.81726 °/min
Orbital period
94.31 mins
BSTAR
-0.0014789
Loading maneuver chart data...
Loading SW <> Apogee altitude chart data...
Loading historical data...
Loading historical data...
Loading historical data...
Loading historical data...
Loading historical data...
Loading historical data...
Loading historical data...

STARLINK-31432 Visibility forecast

Observer location: undefined°, undefined°

Span
Click to sort rows by Start time (UTC) header in descending order
Start Az.
Max El. time (UTC)
Max El. Az.
Max El.
End time (UTC)
End Az.
6 mins2025-07-09 08:29:46.070Z211.089° SW2025-07-09 08:32:46.070Z156.115° SSE27.109°2025-07-09 08:35:46.070Z89.971° E
5 mins2025-07-09 10:09:46.070Z263.391° W2025-07-09 10:11:46.070Z345.413° N43.917°2025-07-09 10:14:46.070Z69.689° E
5 mins2025-07-09 11:48:46.070Z293.525° NW2025-07-09 11:50:46.070Z350.048° N37.967°2025-07-09 11:53:46.070Z76.809° E
6 mins2025-07-09 13:27:46.070Z285.476° WNW2025-07-09 13:29:46.070Z258.282° W43.581°2025-07-09 13:33:46.070Z113.973° SE
|